Location: Newark
(25.4297°S, 49.2719°W)
Time: 16:36:37
(UTC+00:00)

Vanguard 1 Rocket - Pass Details

Date: 21 November 2019
Orbit: 650 x 4226 km, 34.3° (Epoch: 06 December)

Event Time Altitude Azimuth Distance (km) Brightness Sun altitude
Rises 21:16:38 0° 252° (WSW) 8,297 15.3 5.5°
Reaches altitude 10° 21:22:19 10° 250° (WSW) 7,402 15.0 4.3°
Maximum altitude 21:49:08 78° 162° (SSE) 3,686 10.5 -1.3°
Drops below altitude 10° 22:06:06 10° 75° (ENE) 5,080 10.5 -4.8°
Enters shadow 22:07:39 - 74° (ENE) 5,399 10.7 -5.1°
Sets 22:09:08 0° 74° (ENE) 5,720 - -5.4°
